Theta_e
333 336 345 346 348 351 354 353 352 343 339 341 339 339 342 345 346 341 338 337 335 337 338 339 340 337 332 331 337 338 332 332 333 334 335 338 338 340 340 340 339 335 337 339 322 334 339 335 326
337 342 347 348 350 356 356 352 353 346 342 340 345 345 346 347 345 342 340 339 338 337 338 340 339 335 333 329 328 333 340 334 340 336 338 338 340 341 339 340 340 338 339 339 331 331 330 337 335
345 347 348 351 352 355 357 352 347 344 342 342 347 347 347 346 345 340 340 340 339 338 338 339 337 338 330 330 328 328 329 330 336 339 336 338 339 341 339 338 340 338 340 340 340 341 342 341 338
345 347 347 352 354 352 352 349 344 343 344 346 346 347 345 344 341 340 340 340 340 338 338 337 336 340 336 343 331 333 339 329 330 337 338 340 340 340 340 340 338 338 341 341 341 341 341 340 336
348 349 351 355 355 352 350 351 347 345 346 346 345 345 344 344 343 339 339 340 340 338 337 330 340 338 333 337 341 333 342 335 336 337 334 338 340 339 340 339 333 340 340 340 342 340 339 339 339
349 348 354 357 355 352 350 348 345 346 346 345 344 343 345 345 340 338 338 337 336 335 331 334 342 334 340 340 334 335 336 340 333 337 338 337 337 340 339 341 330 335 337 338 340 341 339 339 336
350 352 355 355 356 354 351 349 345 345 345 345 344 344 345 344 339 339 337 332 329 332 333 332 335 335 335 337 337 339 340 338 339 338 337 335 338 341 340 340 338 333 335 337 341 341 340 341 340
350 349 353 354 356 357 349 351 348 345 345 343 342 344 342 342 339 339 334 328 332 333 332 333 339 335 334 337 338 337 339 338 337 337 336 335 337 340 341 338 340 332 336 340 341 341 341 339 340
347 350 353 355 356 352 348 348 347 344 342 344 344 343 341 340 339 337 330 333 335 336 336 336 337 334 337 338 338 339 338 337 336 336 336 336 339 339 340 339 339 333 338 339 341 341 342 340 339
346 348 350 346 349 349 347 347 347 345 344 344 343 342 340 339 338 331 330 334 335 336 337 336 338 334 334 340 339 336 338 337 336 333 336 335 338 339 339 336 332 331 335 338 340 341 342 343 341
345 349 347 348 349 346 348 348 346 346 345 342 344 343 340 336 333 330 332 333 334 336 336 336 337 333 334 336 336 337 335 334 329 334 333 337 338 338 334 331 332 332 336 339 341 342 343 341 341
346 345 346 347 351 350 349 347 346 347 345 341 336 336 336 334 333 333 333 333 334 335 335 336 336 336 335 336 337 341 338 334 331 333 337 337 336 333 332 335 338 338 340 341 343 340 340 340 341
343 346 348 350 351 350 348 347 346 347 344 342 338 337 337 339 340 337 334 335 336 339 337 337 340 340 334 338 340 343 342 337 330 335 336 336 336 339 340 338 339 341 342 343 341 340 339 339 340
341 346 350 350 349 349 348 346 345 345 345 343 343 341 341 343 344 337 338 339 341 338 342 341 340 339 335 341 343 341 341 336 333 334 335 337 340 341 341 343 341 341 342 342 340 340 340 339 338
337 347 348 349 348 349 347 348 350 347 345 344 344 343 343 344 345 341 341 340 343 339 342 343 343 340 340 341 341 342 341 342 339 337 339 339 340 339 337 339 340 342 341 342 342 342 338 337 336
335 345 353 351 349 348 346 353 349 347 346 346 345 345 344 344 345 344 343 343 344 342 342 343 342 343 342 341 341 342 341 341 341 338 337 339 340 338 338 341 342 340 340 341 344 341 339 339 340
319 342 350 354 349 348 348 349 345 347 348 345 346 345 345 345 345 345 344 344 345 344 343 343 344 344 345 344 343 342 342 343 342 344 341 339 341 340 340 341 342 342 341 342 342 343 344 343 341
324 325 347 354 351 351 350 349 347 346 347 345 345 346 346 346 345 345 345 343 346 345 345 343 344 345 345 345 344 344 342 343 342 343 343 344 341 340 341 342 340 341 341 342 343 344 343 341 341
322 348 353 352 346 348 347 346 347 347 347 347 342 343 345 346 346 345 345 343 346 346 346 343 344 345 345 345 345 345 345 344 344 343 342 343 343 342 340 343 342 343 343 342 343 343 343 341 342
330 349 352 350 349 344 346 348 348 347 347 347 347 339 343 345 346 346 346 343 346 346 346 342 342 340 343 343 342 343 345 343 341 343 341 341 341 340 341 343 340 340 343 343 343 344 342 342 342
320 342 349 349 349 346 347 350 350 348 346 347 347 342 341 344 345 346 346 344 346 346 345 342 341 340 340 344 343 344 345 344 344 344 343 343 341 340 343 344 342 340 343 343 342 344 343 342 342
321 321 347 349 344 349 344 350 351 349 348 347 347 346 343 343 343 344 346 344 346 346 344 343 342 343 339 343 346 343 344 344 345 345 343 342 341 341 342 341 343 340 342 343 342 343 344 342 343
321 321 345 344 344 345 351 344 341 349 350 348 346 345 342 343 342 344 345 344 346 347 344 344 342 344 343 340 345 344 345 345 344 346 344 342 343 343 343 343 341 341 342 342 340 342 344 343 344
328 338 337 336 339 345 345 345 347 351 349 347 344 345 342 343 343 342 344 344 346 347 344 345 344 345 344 341 342 346 344 345 346 345 345 345 344 343 342 341 341 342 343 343 341 340 344 344 344
323 332 340 343 344 343 336 346 340 342 346 346 345 344 343 343 343 344 345 345 346 346 345 345 345 345 345 344 343 342 345 345 345 346 347 345 343 343 341 344 345 344 343 344 341 341 343 343 344
321 327 335 343 343 341 340 346 339 342 342 345 344 345 344 342 343 344 345 346 347 346 345 344 344 345 345 345 344 340 345 345 345 344 344 347 345 346 345 344 345 343 342 344 344 340 339 342 343
320 326 323 327 322 339 340 341 339 343 345 345 345 346 342 341 343 344 345 346 345 345 345 344 344 345 345 345 344 341 343 344 343 344 346 346 346 345 347 345 346 345 341 342 343 343 340 341 341
320 318 324 320 328 336 343 345 344 348 346 347 347 348 345 342 343 344 344 343 343 345 344 345 345 344 344 345 344 343 342 342 344 343 346 346 346 346 343 342 345 344 342 341 343 344 343 343 342
325 324 319 320 323 339 343 343 346 346 343 347 346 347 345 343 343 344 344 343 343 342 344 345 345 345 345 345 345 344 342 342 344 345 346 345 345 346 347 348 349 348 346 345 342 341 343 341 340
322 324 321 324 333 332 335 342 346 346 347 343 344 345 346 344 342 343 343 342 343 342 344 346 345 344 343 342 344 344 340 343 344 343 342 342 344 345 344 344 346 346 347 348 345 343 343 341 342
Wind_Speed
9 9 4 2 2 1 3 3 1 8 7 8 21 6 4 6 1 3 24 24 24 23 21 18 15 13 12 11 12 13 12 12 12 12 12 13 13 14 14 15 14 15 18 15 19 21 19 19 18
9 7 2 2 2 1 3 2 2 4 16 32 12 17 6 3 5 19 28 26 24 23 21 18 14 12 10 9 9 10 10 11 11 11 11 12 12 14 14 14 14 16 18 19 20 21 21 20 19
8 3 1 1 2 1 2 3 3 10 28 23 6 13 5 3 12 32 26 29 24 22 20 16 13 11 9 9 8 9 8 8 11 10 11 11 11 13 14 14 14 16 17 18 18 16 15 15 16
3 1 1 1 3 2 2 3 15 20 14 6 18 9 8 11 27 21 29 25 25 21 19 15 12 10 9 7 8 9 8 8 10 9 11 11 11 12 13 14 15 17 15 16 14 15 16 15 15
4 1 1 1 1 1 5 4 5 4 6 11 2 7 13 12 12 29 27 23 23 22 18 15 11 9 10 9 7 8 8 8 9 10 11 12 11 12 12 13 15 15 15 15 16 16 16 15 14
1 2 1 1 4 5 3 8 2 6 12 13 15 15 6 9 28 29 25 23 22 21 18 15 11 9 10 9 8 8 8 9 9 10 11 12 11 11 11 12 13 14 14 15 15 15 14 15 16
2 2 2 4 4 6 3 11 7 9 13 8 19 8 14 21 30 27 25 23 21 18 15 14 12 10 10 8 9 9 8 9 10 10 12 13 12 11 11 12 11 14 15 14 15 13 13 14 15
1 0 2 2 9 4 2 5 7 13 7 17 21 6 13 34 29 27 25 22 19 16 14 13 13 12 11 10 8 9 9 8 9 11 13 13 12 12 12 11 12 14 15 14 14 13 11 11 13
2 1 2 3 3 8 8 2 6 10 18 4 3 25 34 35 30 28 26 22 19 17 14 13 12 11 10 10 10 11 10 9 9 11 14 15 14 12 12 12 12 13 13 13 13 13 12 12 10
3 1 1 5 4 9 12 5 1 7 14 17 28 26 35 33 30 29 27 24 21 19 16 14 12 11 11 11 11 12 11 9 11 13 14 16 14 14 12 12 13 14 13 12 11 10 8 10 10
4 2 4 5 16 12 7 8 7 13 4 28 36 36 36 33 29 27 26 22 19 18 16 15 14 12 11 12 14 14 13 12 12 15 16 16 15 11 12 15 15 14 13 11 9 7 5 6 8
3 5 2 0 16 19 10 7 5 6 6 29 42 41 37 34 30 28 25 22 20 18 16 15 14 12 13 14 16 13 13 12 14 16 15 15 14 16 16 16 15 14 12 8 5 7 9 9 7
3 5 5 3 17 24 17 9 12 5 16 29 37 38 36 32 27 25 22 19 19 19 18 16 14 13 15 17 14 14 13 12 13 14 14 15 16 17 16 15 14 12 10 8 8 7 7 11 9
5 8 11 9 15 17 17 8 5 7 14 28 34 35 34 30 26 23 22 23 21 20 19 17 16 16 17 15 16 16 15 15 14 13 13 17 17 13 11 13 9 11 8 6 7 3 4 6 7
3 6 6 9 16 11 21 9 7 11 25 30 32 34 31 29 26 26 22 25 21 20 19 16 16 16 18 16 16 16 14 13 12 13 14 14 12 9 12 11 12 10 7 6 6 7 4 2 5
4 5 4 7 15 10 1 4 7 15 24 27 28 30 31 30 28 25 21 21 21 19 18 18 16 17 17 15 15 15 12 12 13 12 12 10 8 7 8 10 8 8 8 6 6 7 6 7 7
5 3 4 6 16 7 3 4 4 10 14 26 26 26 31 29 30 27 22 21 21 18 17 18 17 16 15 15 12 11 10 10 10 11 10 10 8 7 6 9 8 8 8 5 4 5 4 4 3
2 2 2 6 11 8 2 6 7 14 10 17 25 26 28 28 33 30 25 22 20 19 17 16 17 16 15 15 13 10 11 9 8 9 11 9 9 9 7 8 8 7 7 3 4 4 5 2 3
3 4 8 5 2 5 2 5 4 12 12 12 17 27 26 32 30 29 26 23 22 20 18 17 18 18 16 14 14 12 12 9 9 8 9 11 10 11 9 6 8 8 6 5 2 3 4 2 5
5 5 5 5 2 4 4 5 7 16 16 11 14 27 30 28 27 31 28 26 24 22 20 19 19 15 15 12 12 9 8 9 9 9 11 12 11 11 11 8 9 9 5 5 3 2 4 4 6
2 6 4 6 5 6 8 4 4 7 14 12 12 17 31 32 30 32 32 29 27 26 22 21 20 14 11 14 12 11 9 10 9 9 12 11 12 12 13 10 9 10 6 7 4 2 2 2 5
4 7 10 14 5 4 2 3 4 10 13 13 14 14 28 32 32 32 34 32 30 27 24 22 20 15 12 18 13 10 10 8 6 9 8 10 11 13 12 13 11 10 8 8 6 4 0 1 2
6 7 15 11 5 4 6 2 3 10 12 13 12 16 30 34 34 34 38 35 32 28 25 22 21 19 13 18 14 12 10 8 7 10 9 10 10 12 12 11 12 12 8 7 7 7 3 2 1
5 9 9 5 3 2 8 5 4 11 21 21 29 29 29 36 37 34 40 36 33 30 26 23 22 21 17 15 16 14 10 11 9 9 9 11 10 10 12 10 11 11 9 8 8 10 7 4 1
4 5 2 3 1 5 4 4 6 9 10 27 35 34 30 38 39 37 42 39 36 34 29 26 22 24 20 17 18 16 13 8 8 7 7 10 11 10 11 11 10 10 11 10 9 11 10 7 5
8 8 5 5 5 3 3 5 4 6 12 19 22 30 27 35 36 37 41 39 36 33 30 26 23 23 22 19 16 18 16 11 8 8 10 9 10 8 8 9 9 10 10 12 11 10 12 11 9
5 4 5 7 3 3 2 3 4 7 5 17 22 27 27 36 37 38 38 30 24 25 30 29 27 23 23 19 17 17 18 14 11 8 11 10 9 9 9 10 9 8 8 8 10 10 13 13 12
5 6 3 3 5 3 2 2 3 3 3 7 16 19 25 34 38 37 39 31 22 26 28 27 28 25 21 19 18 18 18 14 11 10 7 9 12 7 8 9 9 8 7 8 11 12 12 13 13
2 1 6 5 3 5 4 4 2 4 5 8 11 14 22 31 35 36 38 34 27 23 33 29 28 26 25 22 18 17 18 17 12 10 6 5 8 9 10 9 9 9 8 8 10 13 13 15 15
1 4 5 5 3 1 3 2 2 5 9 12 13 17 18 24 30 33 36 28 31 32 31 27 24 17 16 20 20 17 17 18 16 14 10 9 8 8 7 9 10 10 10 11 11 12 12 13 11
Wind_Direction
156 134 127 44 53 22 302 286 23 104 135 178 151 156 164 66 109 165 143 149 157 152 149 145 147 145 139 134 130 125 127 126 122 116 113 111 109 113 106 105 103 113 112 114 112 115 110 106 103
140 134 120 89 89 137 237 284 110 181 154 141 113 119 62 85 89 138 146 150 157 150 149 147 148 147 143 142 144 140 133 136 131 130 120 110 110 115 112 109 106 112 116 107 109 107 104 97 94
139 129 38 133 128 190 349 0 124 114 139 140 105 103 73 77 132 141 148 152 158 151 149 148 150 144 138 135 139 146 149 149 143 135 131 121 115 117 115 117 117 122 118 113 111 109 103 99 89
159 14 5 314 140 178 266 83 110 116 125 124 124 75 74 128 135 145 148 155 158 156 151 147 148 147 140 141 133 142 135 141 151 139 134 130 129 121 116 114 122 128 122 116 105 102 99 96 85
142 23 339 357 243 218 251 297 77 98 99 130 108 95 109 139 141 145 145 151 161 160 154 150 148 150 149 144 136 145 131 130 143 140 140 140 137 128 117 117 130 127 124 113 99 103 96 89 80
170 75 46 238 187 160 250 349 73 87 112 105 99 106 107 155 148 145 142 145 153 153 151 150 146 149 143 142 137 140 140 133 145 143 140 139 139 133 118 116 125 130 121 109 99 104 93 82 71
241 135 222 217 190 150 114 324 91 85 115 112 131 114 136 152 149 146 145 146 148 148 151 150 148 145 150 147 140 138 133 137 142 147 144 143 140 140 123 120 122 130 120 107 104 108 92 76 68
233 298 264 340 159 106 141 345 84 100 72 130 121 154 150 154 154 150 150 150 150 150 150 151 153 147 148 139 138 133 129 133 140 142 144 145 141 138 128 125 129 132 128 118 106 98 80 74 70
155 74 326 24 100 121 142 46 54 113 138 94 182 147 151 156 156 155 156 156 155 153 155 154 150 149 149 142 136 133 127 132 136 144 148 149 139 130 135 134 140 140 136 126 109 93 77 67 71
146 131 331 18 111 167 146 101 132 146 99 104 108 141 152 155 159 161 161 160 161 160 157 152 154 156 151 146 139 135 132 141 141 145 148 146 139 136 138 139 138 144 144 133 111 98 75 64 61
167 155 209 88 111 147 161 144 209 130 103 150 141 151 156 158 164 166 165 162 158 159 159 155 156 155 155 141 138 132 125 131 134 144 145 145 142 130 129 133 133 132 133 123 105 82 57 43 62
150 163 168 318 151 168 164 136 123 23 114 156 149 154 158 161 167 171 169 164 165 162 156 155 152 152 150 144 143 138 131 119 132 137 140 137 134 132 133 131 130 129 123 114 95 80 65 41 66
208 178 131 78 135 156 145 132 165 154 133 154 153 157 163 165 171 178 171 163 164 160 154 150 153 152 150 147 145 139 143 129 134 139 136 136 135 129 128 132 134 134 128 117 115 96 73 51 89
205 167 140 139 134 147 138 134 143 194 156 162 163 164 168 171 174 180 173 163 159 155 149 146 140 143 150 149 145 140 135 127 130 138 138 138 135 135 143 149 149 141 128 110 100 79 68 62 60
215 117 131 148 144 138 125 148 208 173 162 164 172 171 174 177 180 182 171 169 159 155 157 151 153 142 148 148 151 149 145 141 140 140 140 142 139 135 142 149 146 147 142 102 69 48 40 52 58
114 102 153 162 157 160 44 160 165 157 156 169 173 176 180 188 188 188 181 177 167 162 162 164 152 151 157 156 157 157 154 148 144 145 162 151 152 140 150 148 152 145 156 123 52 60 55 51 58
14 170 178 157 176 132 43 83 264 169 174 172 176 176 185 195 198 194 190 185 179 168 166 175 169 162 166 171 168 169 170 164 170 166 165 177 174 154 156 160 154 154 161 137 88 67 37 10 36
194 125 141 126 181 141 86 53 169 189 184 161 180 182 182 192 201 199 194 191 189 181 177 176 179 179 180 179 176 177 179 177 164 176 184 185 180 170 160 161 166 164 158 150 104 57 31 69 72
126 78 102 81 10 86 357 359 169 185 217 186 179 184 184 197 208 200 198 194 192 191 186 181 182 177 180 183 184 178 184 188 195 192 195 200 197 194 179 173 163 156 157 151 114 54 17 359 5
105 97 78 71 31 67 123 323 160 181 208 210 176 186 191 194 200 200 201 198 199 193 193 187 182 174 187 189 189 189 187 196 209 208 203 204 199 197 194 191 182 173 162 170 161 65 60 32 18
141 141 168 139 125 45 115 6 127 186 218 240 212 194 196 196 199 199 202 202 200 197 195 190 186 186 190 188 194 204 207 200 201 207 200 203 203 200 199 202 202 196 195 192 194 131 70 25 14
183 189 153 142 114 150 164 204 233 191 216 229 239 204 196 201 204 203 202 205 204 201 197 193 187 185 195 194 203 208 198 199 198 195 195 193 193 196 204 215 219 205 200 196 218 197 274 335 347
223 167 159 161 101 106 190 146 231 166 207 227 241 212 197 202 203 206 202 205 204 200 198 197 195 194 198 202 205 208 210 204 193 191 195 190 190 202 207 211 208 196 202 210 214 207 219 276 354
122 88 50 61 74 309 192 187 226 189 202 199 204 226 204 203 206 208 203 204 207 204 202 199 201 201 206 202 206 214 223 212 203 207 209 208 195 193 190 188 191 208 222 222 228 215 217 222 212
79 77 71 49 85 219 239 131 240 225 206 195 199 207 209 204 204 202 203 205 208 207 205 203 204 208 212 210 216 221 222 223 201 241 226 214 209 207 198 201 216 225 228 230 232 214 221 229 230
183 162 151 156 189 218 102 214 259 301 226 210 210 207 209 201 201 202 203 207 210 210 213 209 210 210 216 217 225 222 226 237 231 241 231 227 219 228 222 221 228 226 229 232 219 223 226 232 245
189 169 184 104 26 98 232 299 298 16 66 163 162 182 187 196 193 198 198 200 213 211 221 219 218 216 218 224 228 227 230 241 242 243 251 227 217 223 226 227 227 232 241 230 222 226 228 234 252
161 163 99 16 138 182 296 281 251 3 57 126 145 148 166 183 190 191 197 200 227 228 227 238 231 224 222 227 233 235 234 240 244 240 228 236 226 222 224 215 222 228 240 247 235 243 236 241 246
117 104 51 108 101 150 156 252 217 231 161 140 134 147 157 171 182 188 200 205 206 221 230 243 240 230 225 226 234 238 239 239 240 247 240 255 231 229 224 223 241 240 249 257 256 247 247 245 250
74 144 134 122 221 40 130 244 343 95 120 136 148 163 166 160 173 189 197 206 210 217 221 227 227 219 231 239 236 236 237 237 244 248 253 246 242 245 262 262 260 256 252 257 257 245 251 247 251